Location: Newark
(48.0000°N, 67.0000°E)
Time: 11:20:09
(UTC+00:00)

Envisat - Visible Passes

Search period start: 22 January 2020 00:00
Search period end: 01 February 2020 00:00
Orbit: 764 x 766 km, 98.1° (Epoch: 22 January)

Date Brightness Start Highest point End Pass type
(mag) Time Alt. Az. Time Alt. Az. Time Alt. Az.
22 Jan 5.3 01:24:18 10° NE 01:28:35 26° E 01:32:49 10° SSE visible
22 Jan 3.2 12:42:03 10° SE 12:46:55 49° ENE 12:51:49 10° N visible
22 Jan 5.3 14:22:03 10° SSW 14:26:11 25° W 14:30:20 10° NW visible
23 Jan 6.2 00:49:07 10° ENE 00:51:21 13° E 00:53:35 10° ESE visible
23 Jan 3.1 02:26:00 10° NNE 02:31:08 89° ESE 02:36:13 10° SSW visible
23 Jan 4.0 13:44:14 10° S 13:49:09 50° W 13:54:06 10° NNW visible
24 Jan 4.3 01:49:23 10° NNE 01:54:15 43° E 01:59:05 10° S visible
24 Jan 3.0 13:07:15 10° SSE 13:12:19 80° ENE 13:17:26 10° NNW visible
24 Jan 6.0 14:49:06 10° WSW 14:51:58 15° W 14:54:52 10° NW visible
25 Jan 5.7 01:13:18 10° NE 01:17:10 21° E 01:21:01 10° SE visible
25 Jan 5.0 14:10:20 10° SSW 14:14:48 30° W 14:19:17 10° NNW visible
26 Jan 3.3 02:14:43 10° NNE 02:19:49 73° ESE 02:24:53 10° S visible
26 Jan 3.6 13:32:48 10° S 13:37:49 63° W 13:42:53 10° NNW visible
27 Jan 4.8 01:38:14 10° NNE 01:42:54 35° E 01:47:31 10° SSE visible
27 Jan 3.0 12:56:02 10° SSE 13:01:02 65° ENE 13:06:06 10° N visible
27 Jan 5.8 14:37:01 10° SW 14:40:32 19° W 14:44:04 10° NW visible
28 Jan 6.0 01:02:24 10° NE 01:05:45 17° E 01:09:05 10° SE visible
28 Jan 4.6 13:58:43 10° SSW 14:03:25 37° W 14:08:10 10° NNW visible
29 Jan 3.7 02:03:28 10° NNE 02:08:30 58° E 02:13:30 10° S visible
29 Jan 3.2 13:21:26 10° S 13:26:30 78° WSW 13:31:37 10° NNW visible
29 Jan 6.4 15:05:09 10° W 15:06:23 11° W 15:07:38 10° WNW visible
30 Jan 5.2 01:27:07 10° NE 01:31:31 28° E 01:35:52 10° SSE visible
30 Jan 5.5 14:25:08 10° SW 14:29:07 23° W 14:33:08 10° NW visible
31 Jan 6.2 00:51:42 10° NE 00:54:19 14° E 00:56:55 10° ESE visible
31 Jan 4.2 13:47:11 10° S 13:52:04 46° W 13:56:59 10° NNW visible
